星链-36306(STARLINK-36306)

导读

STARLINK-36306(NORAD 编号 68160)是SpaceX星链(Starlink)低轨互联网星座中的一颗卫星,属于Starlink卫星组网的组成部分。Starlink项目是SpaceX在2015年启动的全球低轨互联网星座计划,计划总计部署4.2万颗卫星,该卫星运行在近地轨道,主要为全球提供广覆盖、低时延的卫星互联网服务,可满足偏远地区、航空、海洋等特殊场景的联网需求,配合整个星链星座,共同实现全球天基通信网络的搭建,是Starlink大规模低轨卫星组网中的单元之一。

基本信息
目录编号:
68160
目录名称:
STARLINK-36306
国际标识:
2026-049U
轨道中心:
EARTH
卫星名称:
星链-36306
卫星全名:
星链-36306(STARLINK-36306)
卫星状态:
在轨 (已飞行176 天)
发射日期:
2026-03-13 UTC
国别 :
美国 (US)
星等 :
--
轨道信息
数据来源 国际轨道数据 AOE轨道数据
星历时间 2026-09-05T07:56:02+0800
12小时前
查看轨道信息
2026-09-02T16:00:00+0800
3天前
查看轨道信息
半长轴 6843.668km 6843.598km
偏心率 0.0001512 0.0001766
轨道倾角 97.285° 97.284°
近地点辐角 101.275° 86.485°
升交点赤经 268.152° 265.526°
平近点角 258.866° 337.391°
近地点 464.496km 464.252km
远地点 466.566km 466.67km
周期 93.906分钟 93.905分钟
每日圈数 15.334492 15.334727
详细信息
固有亮度:
5
最大亮度:
2.5
卫星平台:
Starlink V1.0
覆盖范围:
全球
运营商:
太空探索技术公司
运营商所在国:
美国
制造商(研发单位):
太空探索技术公司
制造商所在国:
美国
使用方式:
暂无
卫星简介
Starlink 计划是 SpaceX 推出的全球卫星互联网项目,通过发射低轨道卫星,为全球尤其是偏远地区提供高速、低延迟的互联网服务。自 2019 年起,Starlink 已部署数千颗卫星,旨在缩小全球数字鸿沟,推动互联网普及。该项目还为军事、航空等行业提供通信支持,带来广泛经济效益。
2D轨道图
3D轨道图
轨道高度分析图
轨道倾角分析图
轨道综合分析图
查看轨道综合分析图
交会数据列表
事件ID 空间交会对象 最接近时刻(TCA) 交会距离 交会风险概率(CRP) 交会风险指数(CRI) 操作
CDM_260906-103104-389106-816024
OBJECT R (43891)
2026-09-06T
10:31:03+0000
0.569 km
远距离
1.524895E-4 高风险 0.79
CDM_260907-120004-606306-816021
2026-09-07T
12:00:06+0000
2.167 km
极远距离
1.87759E-6 低风险 0.4
CDM_260907-012605-371906-816021
2026-09-07T
01:26:43+0000
2.418 km
极远距离
1.820713E-6 低风险 0.4
CDM_260905-234706-264806-816021
LIME (62648)
2026-09-05T
23:47:47+0000
2.271 km
极远距离
1.440759E-6 低风险 0.38
CDM_260907-001504-814406-816021
2026-09-07T
00:15:21+0000
2.975 km
极远距离
1.256333E-6 低风险 0.37